Location: Kawakawa
(35.3830°S, 174.0670°E)
Time: 05:52:51
(UTC+13:00)

A-11 Canister half - Pass Details

Date: 08 December 2019
Orbit: 1525 x 1684 km, 47.3° (Epoch: 20 January)

Event Time Altitude Azimuth Distance (km) Brightness Sun altitude
Rises 00:15:16 0° 244° (WSW) 4,699 12.1 -30.3°
Reaches altitude 10° 00:18:32 10° 237° (WSW) 3,725 11.5 -30.5°
Maximum altitude 00:27:29 45° 166° (SSE) 2,031 9.9 -30.9°
Drops below altitude 10° 00:36:38 10° 94° (E) 3,815 11.0 -31.3°
Sets 00:40:00 0° 88° (E) 4,820 11.5 -31.4°
